Погода в Дегтярке

Россия / Алтайский край     53°20′36″N   79°21′19″E
темп.,
°C
ветер,
м/с
пор.,
м/с
влажн.,
%
обл.,
%
осадки,
мм/ч
давл.,
гПа
погр.,
м
24 июля, сб
сб2401:00+20всв226856 0.0 100511
04:00+20ссв2365100 0.0 100542
07:00+20с3671100 0.0 1006131
10:00+20ссз237499 0.0 100659
13:00+27зсз224867 0.0 10061237
16:00+30сз343632 0.0 10052441
19:00+29с443694 0.0 10062182
22:00+22вюв337033 0.0 100732
25 июля, вс
вс2501:00+20в22783 0.0 100720
04:00+19в11805 0.0 100711
07:00+20всв227787 0.0 100740
10:00+25в22555 0.0 1006507
13:00+29юв1140100 0.0 10051696
16:00+30ююв1136100 0.0 10042030
19:00+30юв013724 0.0 10031890
22:00+24вюв33567 0.0 100233
26 июля, пн
пн2601:00+22юв365779 0.0 1002112
04:00+20юз36614 0.0 100191
07:00+19з6118921 0.1 1002368
10:00+21зсз9117298 0.0 1003911
13:00+22зсз7965100 0.0 10041176
16:00+21зсз896383 0.0 10051263
19:00+21сз81054100 0.1 10061766
22:00+18ссз7116314 0.0 10081016
27 июля, вт
вт2701:00+12сз35800 0.0 100991
04:00+11з36870 0.0 1010106
07:00+12з388093 0.0 1010207
10:00+16сз4653100 0.0 1011786
13:00+18сз574031 0.0 10111819
16:00+18зсз5643100 0.0 10111897
19:00+16ссз5748100 0.0 1012791
22:00+13з22577 0.0 101212
28 июля, ср
ср2801:00+14зсз225562 0.0 101328
04:00+11зсз22675 0.0 101310
07:00+11з116951 0.0 101313
10:00+15юз1153100 0.0 1013245
13:00+19зюз2243100 0.0 10131124
16:00+21з223434 0.0 10122146
19:00+21ююз2235100 0.0 10111276
22:00+16юв22495 0.0 101211